Simultaneous Nadir Overpasses (SNOs) Predictions

Prediction of SNOs between METOP-A and TERRA Satellite Orbit:

Table of predicted SNOs for the next 14.0 days since TLE Epoch: 3/9/2019
Index Date (METOP-A) Time (METOP-A) Lat,Lon (METOP-A) SZA (METOP-A ) Date (TERRA) Time (TERRA) Lat,Lon (TERRA) SZA (TERRA ) Distance(km) Time Diff (sec)
1 03/09/2019 09:39:39 81.45, 85.03 88.69 03/09/2019 09:40:05 81.44, 84.94 88.68 1.75 26
2 03/09/2019 10:30:19 -81.45,-107.53 91.32 03/09/2019 10:29:32 -81.44,-107.46 91.34 1.59 47
3 03/12/2019 05:13:53 81.45, 151.44 87.61 03/12/2019 05:14:19 81.44, 151.42 87.61 0.82 26
4 03/12/2019 06:04:33 -81.45, -41.09 92.40 03/12/2019 06:03:46 -81.44, -40.96 92.41 2.24 47
5 03/15/2019 00:48:07 81.45,-142.17 86.52 03/15/2019 00:48:31 81.44,-142.08 86.54 1.57 24
6 03/15/2019 01:38:46 -81.44, 25.74 93.44 03/15/2019 01:37:58 -81.44, 25.56 93.48 2.94 48
7 03/17/2019 20:22:19 81.45, -75.39 85.47 03/17/2019 20:22:40 81.45, -75.55 85.46 2.58 21
8 03/17/2019 21:12:59 -81.44, 92.15 94.52 03/17/2019 21:12:07 -81.45, 92.10 94.55 0.88 52
9 03/20/2019 15:56:33 81.45, -9.03 84.38 03/20/2019 15:56:48 81.45, -8.99 84.39 0.90 15




NCC Satellite Simultaneous Nadir Overpasses (SNOs) Prediction Service
